Tracking 18785 objects as of 20-August-2017
HD Live streaming from Space Station
objects crossing your sky now

COSMOS 2251 DEB

Track COSMOS 2251 DEB now!
10-day predictions


NORAD ID: 38196
Int'l Code: 1993-036BSL
Perigee: 619.9 km
Apogee: 909.2 km
Inclination: 73.9 °
Period: 100.0 minutes
Semi major axis: 7135 km
RCS: 0.0033 m2 (small)
Launch date: June 16, 1993
Source: Commonwealth of Independent States (former USSR) (CIS)
Launch site: PLESETSK MISSILE AND SPACE COMPLEX (PKMTR)

Note: This is SATELLITE DEBRIS
Your satellite tracking list
Your tracking list is empty





NASA's NSSDC Master Catalog

Two Line Element Set (TLE):
1 38196U 93036BSL 17231.37451047 +.00001633 +00000-0 +41227-3 0  9995
2 38196 073.8909 133.0588 0202716 229.2404 129.1004 14.40330265214039
Source of the keplerian elements: AFSPC